When you browse on this site, cookies collect data to enhance your experience and personalize the content and advertising you see.
Visit our Privacy Policy to learn more. By continuing to use the site, you agree to this use of cookies and data.
  • In Hungary
  • List of Countries
  • For 7 days
  • Water Temperature
  • Weather Map
  • News
  • Weather Widgets
  • user-avatar
    Login

    Hourly Weather Villingen-Schwenningen

    Today, 11 December, Wednesday

    Time Temperature Precipitation Wind Pressure Humidity
    00:00 -4°C° 0 mm 2 mps 701 mmHg 85%
    01:00 -3°C° 0 mm 2 mps 701 mmHg 82%
    02:00 -3°C° 0 mm 2 mps 700 mmHg 80%
    03:00 -3°C° 0 mm 2 mps 699 mmHg 77%
    04:00 -1°C° 0 mm 1 mps 698 mmHg 74%
    05:00 0°C° 0 mm 1 mps 698 mmHg 71%
    06:00 0°C° 0 mm 1 mps 698 mmHg 69%
    07:00 +1°C° 0 mm 1 mps 697 mmHg 66%
    08:00 +2°C° 0 mm 1 mps 697 mmHg 64%
    09:00 +2°C° 0 mm 1 mps 696 mmHg 61%
    10:00 +3°C° 0 mm 1 mps 696 mmHg 59%
    11:00 +3°C° 0 mm 1 mps 695 mmHg 60%
    12:00 +4°C° 0 mm 1 mps 694 mmHg 61%
    13:00 +4°C° 0 mm 1 mps 694 mmHg 62%
    14:00 +3°C° 0.3 mm 2 mps 693 mmHg 69%
    15:00 +2°C° 0.3 mm 2 mps 693 mmHg 76%
    16:00 +2°C° 0.3 mm 2 mps 692 mmHg 82%
    17:00 +1°C° 0.8 mm 3 mps 693 mmHg 86%
    18:00 +1°C° 0.8 mm 3 mps 693 mmHg 91%
    19:00 -1°C° 0.8 mm 4 mps 693 mmHg 95%
    20:00 0°C° 0.2 mm 3 mps 693 mmHg 94%
    21:00 0°C° 0.2 mm 3 mps 693 mmHg 94%
    22:00 +1°C° 0.2 mm 2 mps 693 mmHg 93%
    23:00 +1°C° 0 mm 2 mps 692 mmHg 94%

    Tomorrow, 12 December, Thursday

    Time Temperature Precipitation Wind Pressure Humidity
    00:00 +1°C° 0 mm 2 mps 692 mmHg 94%
    01:00 -1°C° 0 mm 2 mps 692 mmHg 94%
    02:00 -1°C° 0.2 mm 2 mps 691 mmHg 95%
    03:00 -1°C° 0.2 mm 3 mps 691 mmHg 96%
    04:00 -1°C° 0.2 mm 3 mps 691 mmHg 96%
    05:00 -1°C° 0.1 mm 3 mps 691 mmHg 96%
    06:00 -1°C° 0.1 mm 3 mps 691 mmHg 95%
    07:00 -2°C° 0.1 mm 4 mps 691 mmHg 94%
    08:00 -2°C° 0.3 mm 4 mps 691 mmHg 95%
    09:00 -2°C° 0.3 mm 4 mps 691 mmHg 95%
    10:00 -2°C° 0.3 mm 4 mps 691 mmHg 95%
    11:00 -2°C° 0.1 mm 4 mps 691 mmHg 91%
    12:00 -1°C° 0.1 mm 4 mps 691 mmHg 87%
    13:00 0°C° 0.1 mm 3 mps 691 mmHg 83%
    14:00 -1°C° 0 mm 3 mps 691 mmHg 85%
    15:00 -1°C° 0 mm 2 mps 690 mmHg 87%
    16:00 -2°C° 0 mm 2 mps 689 mmHg 89%
    17:00 -2°C° 0 mm 2 mps 688 mmHg 90%
    18:00 -3°C° 0 mm 2 mps 688 mmHg 92%
    19:00 -4°C° 0 mm 2 mps 687 mmHg 93%
    20:00 -3°C° 0 mm 2 mps 686 mmHg 92%
    21:00 -4°C° 0 mm 3 mps 685 mmHg 90%
    22:00 -4°C° 0 mm 3 mps 684 mmHg 89%
    23:00 -4°C° 0 mm 3 mps 683 mmHg 88%

    Day after tomorrow, 13 December, Friday

    Time Temperature Precipitation Wind Pressure Humidity
    00:00 -4°C° 0 mm 3 mps 682 mmHg 86%
    01:00 -4°C° 0 mm 3 mps 681 mmHg 85%
    02:00 -2°C° 0.7 mm 3 mps 679 mmHg 88%
    03:00 -3°C° 0.7 mm 4 mps 678 mmHg 90%
    04:00 -4°C° 0.7 mm 5 mps 677 mmHg 92%
    05:00 -4°C° 2.1 mm 5 mps 677 mmHg 93%
    06:00 -3°C° 2.1 mm 4 mps 676 mmHg 95%
    07:00 -3°C° 2.1 mm 4 mps 675 mmHg 96%
    08:00 -2°C° 1.6 mm 5 mps 676 mmHg 95%
    09:00 -2°C° 1.6 mm 5 mps 677 mmHg 95%
    10:00 -2°C° 1.6 mm 6 mps 677 mmHg 94%
    11:00 -2°C° 0.6 mm 6 mps 678 mmHg 93%
    12:00 -2°C° 0.6 mm 6 mps 678 mmHg 91%
    13:00 -2°C° 0.6 mm 6 mps 678 mmHg 89%
    14:00 -2°C° 0.1 mm 6 mps 679 mmHg 90%
    15:00 -3°C° 0.1 mm 6 mps 679 mmHg 91%
    16:00 -2°C° 0.1 mm 5 mps 679 mmHg 91%
    17:00 -3°C° 1.5 mm 6 mps 680 mmHg 93%
    18:00 -3°C° 1.5 mm 6 mps 681 mmHg 95%
    19:00 -3°C° 1.5 mm 6 mps 682 mmHg 98%
    20:00 -3°C° 1.1 mm 6 mps 683 mmHg 97%
    21:00 -2°C° 1.1 mm 6 mps 684 mmHg 97%
    22:00 -2°C° 1.1 mm 6 mps 685 mmHg 97%
    23:00 -2°C° 0.2 mm 6 mps 686 mmHg 97%

    14 December, Saturday

    Time Temperature Precipitation Wind Pressure Humidity
    00:00 -2°C° 0.2 mm 6 mps 686 mmHg 96%
    01:00 -2°C° 0.2 mm 6 mps 687 mmHg 96%
    02:00 -3°C° 0 mm 6 mps 687 mmHg 94%
    03:00 -2°C° 0 mm 5 mps 686 mmHg 91%
    04:00 -2°C° 0 mm 5 mps 686 mmHg 89%
    05:00 -3°C° 0.2 mm 6 mps 686 mmHg 91%
    06:00 -2°C° 0.2 mm 6 mps 686 mmHg 92%
    07:00 -1°C° 0.2 mm 6 mps 686 mmHg 94%
    08:00 +1°C° 0.2 mm 6 mps 687 mmHg 95%
    09:00 +1°C° 0.2 mm 6 mps 687 mmHg 95%
    10:00 +2°C° 0.2 mm 6 mps 688 mmHg 96%
    11:00 +2°C° 0.5 mm 6 mps 688 mmHg 97%
    12:00 +2°C° 0.5 mm 5 mps 688 mmHg 97%
    13:00 +2°C° 0.5 mm 5 mps 689 mmHg 98%
    14:00 +2°C° 0.3 mm 5 mps 689 mmHg 97%
    15:00 +2°C° 0.3 mm 5 mps 689 mmHg 97%
    16:00 +3°C° 0.3 mm 5 mps 689 mmHg 97%
    17:00 +3°C° 0.9 mm 5 mps 689 mmHg 96%
    18:00 +3°C° 0.9 mm 6 mps 689 mmHg 96%
    19:00 +4°C° 0.9 mm 7 mps 690 mmHg 96%
    20:00 +4°C° 0.9 mm 6 mps 690 mmHg 96%
    21:00 +4°C° 0.9 mm 6 mps 691 mmHg 96%
    22:00 +4°C° 0.9 mm 6 mps 692 mmHg 96%
    23:00 +3°C° 0.3 mm 5 mps 692 mmHg 96%

    15 December, Sunday

    Time Temperature Precipitation Wind Pressure Humidity
    00:00 +4°C° 0.3 mm 4 mps 692 mmHg 96%
    01:00 +4°C° 0.3 mm 4 mps 692 mmHg 96%
    02:00 +4°C° 0.9 mm 4 mps 691 mmHg 95%
    03:00 +5°C° 0.9 mm 5 mps 691 mmHg 95%
    04:00 +5°C° 0.9 mm 5 mps 691 mmHg 94%
    05:00 +4°C° 0.8 mm 6 mps 691 mmHg 94%
    06:00 +4°C° 0.8 mm 6 mps 691 mmHg 93%
    07:00 +4°C° 0.8 mm 7 mps 691 mmHg 93%
    08:00 +4°C° 0.6 mm 7 mps 691 mmHg 91%
    09:00 +5°C° 0.6 mm 8 mps 692 mmHg 90%
    10:00 +5°C° 0.6 mm 8 mps 692 mmHg 89%
    11:00 +5°C° 0.7 mm 7 mps 693 mmHg 90%
    12:00 +4°C° 0.7 mm 7 mps 693 mmHg 91%
    13:00 +4°C° 0.7 mm 6 mps 694 mmHg 93%
    14:00 +5°C° 0.5 mm 5 mps 694 mmHg 93%
    15:00 +4°C° 0.5 mm 4 mps 695 mmHg 93%
    16:00 +3°C° 0.5 mm 3 mps 695 mmHg 93%
    17:00 +4°C° 0.1 mm 2 mps 695 mmHg 93%
    18:00 +4°C° 0.1 mm 2 mps 696 mmHg 94%
    19:00 +4°C° 0.1 mm 1 mps 696 mmHg 94%
    20:00 +4°C° 0 mm 1 mps 696 mmHg 94%
    21:00 +4°C° 0 mm 1 mps 696 mmHg 95%
    22:00 +5°C° 0 mm 1 mps 696 mmHg 95%
    23:00 +4°C° 0 mm 1 mps 696 mmHg 95%

    16 December, Monday

    Time Temperature Precipitation Wind Pressure Humidity
    00:00 +4°C° 0 mm 1 mps 696 mmHg 96%
    01:00 +4°C° 0 mm 1 mps 696 mmHg 96%
    02:00 +4°C° 0 mm 1 mps 695 mmHg 95%
    03:00 +4°C° 0 mm 2 mps 695 mmHg 94%
    04:00 +4°C° 0 mm 2 mps 695 mmHg 93%
    05:00 +3°C° 0 mm 2 mps 695 mmHg 91%
    06:00 +3°C° 0 mm 2 mps 694 mmHg 89%
    07:00 +3°C° 0 mm 2 mps 694 mmHg 88%
    08:00 +3°C° 0 mm 2 mps 694 mmHg 86%
    09:00 +4°C° 0 mm 2 mps 694 mmHg 84%
    10:00 +4°C° 0 mm 2 mps 694 mmHg 83%
    11:00 +6°C° 0 mm 1 mps 694 mmHg 82%
    12:00 +7°C° 0 mm 1 mps 694 mmHg 82%
    13:00 +7°C° 0 mm 0 mps 693 mmHg 82%
    14:00 +7°C° 0 mm 1 mps 693 mmHg 82%
    15:00 +6°C° 0 mm 1 mps 693 mmHg 82%
    16:00 +6°C° 0 mm 1 mps 692 mmHg 83%
    17:00 +5°C° 0 mm 1 mps 692 mmHg 83%
    18:00 +5°C° 0 mm 1 mps 691 mmHg 84%
    19:00 +4°C° 0 mm 1 mps 691 mmHg 85%
    20:00 +3°C° 0 mm 2 mps 691 mmHg 86%
    21:00 +3°C° 0 mm 2 mps 691 mmHg 88%
    22:00 +2°C° 0 mm 2 mps 691 mmHg 89%
    23:00 +4°C° 0 mm 1 mps 691 mmHg 89%
    Show more